• In Hungary
  • List of Countries
  • For 7 days
  • Water Temperature
  • Satellite Maps
  • Weather Map
  • News
  • Weather Widgets
  • user-avatar
    Login

    Hourly Weather Newtownards

    Today, 19 November, Sunday

    Time Temperature Precipitation Wind Pressure Humidity
    00:00 +3°C° 0 mm 4 mps 761 mmHg 81%
    01:00 +3°C° 0 mm 4 mps 761 mmHg 81%
    02:00 +3°C° 0 mm 4 mps 761 mmHg 81%
    03:00 +3°C° 0 mm 3 mps 761 mmHg 81%
    04:00 +3°C° 0 mm 3 mps 761 mmHg 80%
    05:00 +3°C° 0 mm 3 mps 761 mmHg 80%
    06:00 +3°C° 0 mm 3 mps 761 mmHg 79%
    07:00 +5°C° 0 mm 2 mps 761 mmHg 79%
    08:00 +5°C° 0 mm 2 mps 761 mmHg 79%
    09:00 +5°C° 0 mm 2 mps 761 mmHg 79%
    10:00 +5°C° 0 mm 2 mps 761 mmHg 77%
    11:00 +6°C° 0 mm 2 mps 760 mmHg 76%
    12:00 +5°C° 0 mm 3 mps 760 mmHg 74%
    13:00 +5°C° 0.1 mm 3 mps 759 mmHg 76%
    14:00 +5°C° 0.1 mm 4 mps 759 mmHg 78%
    15:00 +5°C° 0.1 mm 4 mps 758 mmHg 80%
    16:00 +6°C° 0 mm 5 mps 758 mmHg 84%
    17:00 +6°C° 0 mm 5 mps 757 mmHg 87%
    18:00 +6°C° 0 mm 5 mps 756 mmHg 91%
    19:00 +7°C° 1.8 mm 6 mps 756 mmHg 92%
    20:00 +7°C° 1.8 mm 6 mps 755 mmHg 94%
    21:00 +6°C° 1.8 mm 7 mps 754 mmHg 95%
    22:00 +8°C° 1.1 mm 7 mps 753 mmHg 94%
    23:00 +9°C° 1.1 mm 8 mps 752 mmHg 93%

    Tomorrow, 20 November, Monday

    Time Temperature Precipitation Wind Pressure Humidity
    00:00 +8°C° 1.1 mm 9 mps 751 mmHg 93%
    01:00 +10°C° 0.3 mm 9 mps 751 mmHg 93%
    02:00 +10°C° 0.3 mm 9 mps 750 mmHg 93%
    03:00 +11°C° 0.3 mm 9 mps 750 mmHg 93%
    04:00 +11°C° 0.3 mm 8 mps 750 mmHg 93%
    05:00 +11°C° 0.3 mm 8 mps 749 mmHg 93%
    06:00 +11°C° 0.3 mm 8 mps 749 mmHg 93%
    07:00 +11°C° 0.2 mm 8 mps 749 mmHg 92%
    08:00 +11°C° 0.2 mm 8 mps 749 mmHg 91%
    09:00 +11°C° 0.2 mm 8 mps 749 mmHg 90%
    10:00 +11°C° 0.5 mm 8 mps 749 mmHg 90%
    11:00 +11°C° 0.5 mm 8 mps 749 mmHg 90%
    12:00 +11°C° 0.5 mm 8 mps 749 mmHg 90%
    13:00 +11°C° 0.1 mm 7 mps 749 mmHg 90%
    14:00 +11°C° 0.1 mm 7 mps 749 mmHg 90%
    15:00 +11°C° 0.1 mm 6 mps 749 mmHg 90%
    16:00 +10°C° 0 mm 5 mps 750 mmHg 92%
    17:00 +10°C° 0 mm 5 mps 750 mmHg 93%
    18:00 +10°C° 0 mm 4 mps 750 mmHg 95%
    19:00 +10°C° 0 mm 4 mps 750 mmHg 95%
    20:00 +10°C° 0 mm 4 mps 750 mmHg 95%
    21:00 +10°C° 0 mm 3 mps 750 mmHg 96%
    22:00 +10°C° 0.1 mm 3 mps 750 mmHg 96%
    23:00 +10°C° 0.1 mm 3 mps 750 mmHg 96%

    Day after tomorrow, 21 November, Tuesday

    Time Temperature Precipitation Wind Pressure Humidity
    00:00 +10°C° 0.1 mm 3 mps 750 mmHg 96%
    01:00 +11°C° 0.7 mm 3 mps 750 mmHg 96%
    02:00 +11°C° 0.7 mm 4 mps 749 mmHg 96%
    03:00 +12°C° 0.7 mm 5 mps 749 mmHg 96%
    04:00 +12°C° 0.4 mm 5 mps 748 mmHg 96%
    05:00 +12°C° 0.4 mm 5 mps 748 mmHg 95%
    06:00 +12°C° 0.4 mm 5 mps 747 mmHg 95%
    07:00 +11°C° 0.7 mm 6 mps 747 mmHg 94%
    08:00 +11°C° 0.7 mm 6 mps 746 mmHg 94%
    09:00 +11°C° 0.7 mm 7 mps 746 mmHg 94%
    10:00 +11°C° 0.1 mm 8 mps 745 mmHg 92%
    11:00 +12°C° 0.1 mm 8 mps 745 mmHg 91%
    12:00 +12°C° 0.1 mm 9 mps 744 mmHg 89%
    13:00 +12°C° 0 mm 9 mps 744 mmHg 89%
    14:00 +12°C° 0 mm 9 mps 744 mmHg 89%
    15:00 +13°C° 0 mm 9 mps 743 mmHg 89%
    16:00 +12°C° 0.2 mm 8 mps 743 mmHg 91%
    17:00 +12°C° 0.2 mm 8 mps 743 mmHg 92%
    18:00 +11°C° 0.2 mm 7 mps 743 mmHg 94%
    19:00 +11°C° 1 mm 7 mps 742 mmHg 94%
    20:00 +11°C° 1 mm 6 mps 742 mmHg 95%
    21:00 +11°C° 1 mm 6 mps 741 mmHg 95%
    22:00 +11°C° 1.8 mm 6 mps 740 mmHg 95%
    23:00 +11°C° 1.8 mm 7 mps 740 mmHg 95%

    22 November, Wednesday

    Time Temperature Precipitation Wind Pressure Humidity
    00:00 +11°C° 1.8 mm 7 mps 739 mmHg 95%
    01:00 +11°C° 1.6 mm 8 mps 739 mmHg 94%
    02:00 +10°C° 1.6 mm 8 mps 738 mmHg 94%
    03:00 +10°C° 1.6 mm 9 mps 738 mmHg 94%
    04:00 +10°C° 0.3 mm 7 mps 738 mmHg 94%
    05:00 +9°C° 0.3 mm 6 mps 738 mmHg 94%
    06:00 +8°C° 0.3 mm 4 mps 738 mmHg 95%
    07:00 +8°C° 1.5 mm 4 mps 738 mmHg 95%
    08:00 +9°C° 1.5 mm 5 mps 738 mmHg 95%
    09:00 +9°C° 1.5 mm 5 mps 738 mmHg 96%
    10:00 +9°C° 2.9 mm 6 mps 737 mmHg 95%
    11:00 +10°C° 2.9 mm 7 mps 737 mmHg 94%
    12:00 +11°C° 2.9 mm 9 mps 737 mmHg 94%
    13:00 +11°C° 0.4 mm 8 mps 737 mmHg 93%
    14:00 +12°C° 0.4 mm 7 mps 737 mmHg 92%
    15:00 +13°C° 0.4 mm 6 mps 737 mmHg 92%
    16:00 +12°C° 0.2 mm 7 mps 736 mmHg 92%
    17:00 +12°C° 0.2 mm 8 mps 736 mmHg 92%
    18:00 +12°C° 0.2 mm 9 mps 736 mmHg 93%
    19:00 +11°C° 0 mm 9 mps 735 mmHg 90%
    20:00 +11°C° 0 mm 9 mps 734 mmHg 88%
    21:00 +11°C° 0 mm 10 mps 734 mmHg 85%
    22:00 +11°C° 0 mm 11 mps 732 mmHg 83%
    23:00 +10°C° 0 mm 13 mps 730 mmHg 80%

    23 November, Thursday

    Time Temperature Precipitation Wind Pressure Humidity
    00:00 +10°C° 0 mm 14 mps 729 mmHg 77%
    01:00 +10°C° 0.5 mm 14 mps 727 mmHg 80%
    02:00 +10°C° 0.5 mm 15 mps 726 mmHg 82%
    03:00 +10°C° 0.5 mm 15 mps 724 mmHg 85%
    04:00 +10°C° 0.9 mm 15 mps 724 mmHg 83%
    05:00 +10°C° 0.9 mm 15 mps 725 mmHg 81%
    06:00 +9°C° 0.9 mm 15 mps 725 mmHg 79%
    07:00 +9°C° 0 mm 14 mps 727 mmHg 79%
    08:00 +8°C° 0 mm 13 mps 729 mmHg 78%
    09:00 +8°C° 0 mm 11 mps 731 mmHg 78%
    10:00 +8°C° 0 mm 11 mps 732 mmHg 76%
    11:00 +8°C° 0 mm 11 mps 733 mmHg 75%
    12:00 +8°C° 0 mm 10 mps 734 mmHg 73%
    13:00 +8°C° 0 mm 9 mps 733 mmHg 75%
    14:00 +9°C° 0 mm 8 mps 733 mmHg 77%
    15:00 +9°C° 0 mm 6 mps 733 mmHg 78%
    16:00 +9°C° 0.2 mm 8 mps 733 mmHg 81%
    17:00 +10°C° 0.2 mm 9 mps 733 mmHg 84%
    18:00 +9°C° 0.2 mm 10 mps 733 mmHg 87%
    19:00 +9°C° 0 mm 10 mps 733 mmHg 85%
    20:00 +8°C° 0 mm 10 mps 734 mmHg 83%
    21:00 +8°C° 0 mm 10 mps 734 mmHg 81%
    22:00 +8°C° 0.2 mm 11 mps 734 mmHg 81%
    23:00 +8°C° 0.2 mm 11 mps 734 mmHg 81%

    24 November, Friday

    Time Temperature Precipitation Wind Pressure Humidity
    00:00 +8°C° 0.2 mm 11 mps 734 mmHg 81%
    01:00 +8°C° 0.1 mm 10 mps 734 mmHg 80%
    02:00 +7°C° 0.1 mm 10 mps 734 mmHg 79%
    03:00 +7°C° 0.1 mm 10 mps 733 mmHg 78%
    04:00 +6°C° 0 mm 9 mps 733 mmHg 78%
    05:00 +6°C° 0 mm 9 mps 733 mmHg 77%
    06:00 +6°C° 0 mm 9 mps 733 mmHg 77%
    07:00 +6°C° 0 mm 9 mps 734 mmHg 77%
    08:00 +5°C° 0 mm 9 mps 734 mmHg 78%
    09:00 +5°C° 0 mm 8 mps 734 mmHg 79%
    10:00 +5°C° 0 mm 9 mps 734 mmHg 76%
    11:00 +6°C° 0 mm 9 mps 734 mmHg 73%
    12:00 +7°C° 0 mm 9 mps 734 mmHg 71%
    13:00 +6°C° 0 mm 10 mps 735 mmHg 71%
    14:00 +6°C° 0 mm 10 mps 735 mmHg 70%
    15:00 +6°C° 0 mm 10 mps 735 mmHg 70%
    16:00 +5°C° 0 mm 10 mps 735 mmHg 70%
    17:00 +4°C° 0 mm 11 mps 735 mmHg 69%
    18:00 +4°C° 0 mm 11 mps 736 mmHg 69%
    19:00 +3°C° 0 mm 12 mps 736 mmHg 67%
    20:00 +3°C° 0 mm 12 mps 737 mmHg 65%
    21:00 +3°C° 0 mm 13 mps 737 mmHg 64%
    22:00 +3°C° 0 mm 13 mps 737 mmHg 65%
    23:00 +3°C° 0 mm 13 mps 737 mmHg 67%
    Show more